Location: Middle Street
(51.7167°N, 0.0333°E)
Time: 18:01:49
(UTC+00:00)

SJ 16-02 - Pass Details

Date: 20 January 2021
Orbit: 606 x 615 km, 75.0° (Epoch: 27 February)

Event Time Altitude Azimuth Distance (km) Brightness Sun altitude
Rises 17:12:38 0° 142° (SE) 2,869 4.6 -7.0°
Reaches altitude 10° 17:16:49 10° 103° (ESE) 1,970 3.5 -7.6°
Maximum altitude 17:17:40 11° 92° (E) 1,937 3.3 -7.7°
Drops below altitude 10° 17:18:32 10° 80° (E) 1,972 3.3 -7.8°
Enters shadow 17:18:53 10° 76° (ENE) 2,004 3.3 -7.8°
